[[{"header":{"parameterUnit":"m.s-1","parameterCategory":1,"la1":30.2991,"la2":30.254,"lo1":-89.0895,"lo2":-89.0444,"dy":0.0017,"dx":0.0017,"nx":28,"ny":28,"refTime":"2023-08-01T09:00:00:Z","depth":0,"parameterNumber":2,"parameterNumberName":"U-component_of_WINDS"},"data":[0,0,0,0,0,0,0,0,0,0,0,0,0,0,0,0,0,0,0,0,0,0,0,0,0,0,0,0,0,0,0,0,0,0,0,0,0,0,0,0,0,0,0,0,0,0,0,0,0,0,0,0,0,0,0,0,0,0,1.9953,1.9953,0,2.0008,2.0008,2.0009,1.9965,1.9963,1.9961,1.996,2.0017,2.002,2.0023,0,0,0,0,0,0,0,0,0,0,0,0,0,1.981,1.9813,1.9953,1.9953,1.9954,2.0008,2.0008,2.0009,1.9965,1.9963,1.9961,1.9959,2.0016,2.002,2.0024,0,0,0,0,0,0,0,0,0,0,0,0,0,1.9869,1.9814,1.9953,1.9939,1.9938,2.0007,2.0008,2.0009,1.9966,1.9963,1.996,1.9958,2.0015,2.0019,2.0024,2.0111,0,0,2.0039,2.0041,0,0,0,0,0,0,0,0,1.9866,1.9874,1.994,1.994,1.9939,1.9977,1.9979,2.0043,1.9967,1.9955,1.9959,1.9956,2.0006,2.0011,2.0028,2.0113,2.0116,2.004,2.0043,2.0045,2.0046,0,0,0,0,0,0,0,1.9862,1.9872,1.9974,1.9941,1.9941,1.993,1.9935,1.9991,1.9996,1.9956,1.9953,1.996,2.0005,2.0023,2.0029,2.0117,2.004,2.0044,2.0047,2.0049,2.0274,2.0276,0,0,0,0,0,0,1.9859,1.9869,1.9973,1.9976,1.9895,1.9935,1.994,1.9967,1.9995,1.9996,1.9962,1.9958,2.0016,2.0023,2.0031,2.0132,2.0045,2.0049,2.0052,2.0271,2.0274,2.0278,0,0,0,0,0,0,1.9856,1.9869,1.9971,1.9922,1.9934,1.994,1.9971,1.997,1.9988,2.0,2.0,1.998,2.0014,2.0024,2.0091,2.0134,2.0052,2.0056,2.0267,2.0272,2.0276,2.0338,0,0,0,0,0,0,1.9852,1.9868,1.9901,1.9923,1.9937,2.003,1.9973,1.9973,1.9996,1.9991,2.0016,2.0018,2.0013,2.0083,2.0095,2.0139,2.006,2.0263,2.0269,2.0274,2.0332,2.0344,2.0354,0,0,0,0,0,1.9847,1.9917,1.9903,1.9916,1.9978,2.0032,2.004,2.0033,2.0,2.0033,2.004,2.0017,2.0127,2.0091,2.0104,2.015,2.026,2.0267,2.0274,2.0327,2.0341,2.0354,0,0,0,0,0,0,1.9902,1.992,1.9904,1.9983,2.0006,2.0025,2.0067,2.0049,2.0082,2.0076,2.0065,2.0071,2.0141,2.0152,2.0111,2.0234,2.0189,2.0198,2.0224,2.0238,2.0249,2.0245,2.0064,0,0,0,0,0,1.9922,1.9965,1.9979,2.0047,2.0059,2.0061,2.0084,2.0076,2.01,2.011,2.0122,2.0146,2.0186,2.0212,2.025,2.0333,2.0337,2.0371,2.0382,2.0391,2.0399,2.0442,2.0457,2.03,2.03,2.03,0,0,1.9967,1.9982,2.001,2.0058,2.0075,2.0119,2.007,2.0119,2.0151,2.0117,2.0181,2.019,2.0217,2.0291,2.0325,2.0303,2.0443,2.0399,2.0406,2.041,2.0451,2.0466,2.0479,2.0305,2.0304,2.0303,0,0,2.007,2.0086,2.0143,2.0161,2.0187,2.0187,2.0201,2.0222,2.0226,2.029,2.0265,2.0303,2.0372,2.0391,2.041,2.0518,2.0497,2.053,2.0588,2.063,2.0643,2.0654,2.0691,2.0705,2.0539,2.0539,2.0539,0,2.0121,2.0187,2.0175,2.0226,2.0247,2.0217,2.0275,2.0293,2.033,2.0346,2.032,2.0405,2.0421,2.0499,2.0525,2.0541,2.0556,2.0528,2.0642,2.0653,2.0663,2.0698,2.0713,2.0543,2.0542,2.0542,2.0541,0,2.0248,2.0294,2.0337,2.0373,2.0399,2.0453,2.045,2.0478,2.0466,2.0469,2.0533,2.0551,2.059,2.0608,2.0598,2.0684,2.067,2.0643,2.0598,2.0682,2.0715,2.0729,2.0548,2.0547,2.0546,2.0545,0,0,2.0389,2.0415,2.0432,2.0446,2.0472,2.0507,2.0558,2.0596,2.062,2.0646,2.0689,2.0747,2.0722,2.0743,2.0735,2.0772,2.0855,2.0741,2.0741,2.0761,2.095,2.0969,2.0985,2.0841,2.0844,2.0846,2.0947,0,2.0492,2.0582,2.0573,2.0659,2.07,2.0671,2.0716,2.0736,2.0739,2.0775,2.0778,2.0819,2.0784,2.0796,2.0831,2.0838,2.0893,2.083,2.0881,2.0883,2.0875,2.1003,2.1025,2.112,2.096,2.0963,2.0964,0,2.0626,2.0655,2.0744,2.0761,2.0778,2.0819,2.0852,2.0886,2.0908,2.0907,2.093,2.0915,2.0966,2.0919,2.099,2.0947,2.0967,2.0973,2.0977,2.0981,2.0929,2.1011,2.115,2.1164,2.0985,2.0983,2.0982,0,2.0718,2.078,2.0841,2.0855,2.0876,2.0905,2.0916,2.0935,2.0957,2.0986,2.1,2.1035,2.1054,2.1081,2.1075,2.1042,2.1147,2.11,2.1148,2.1148,2.1172,2.1171,2.1316,2.1185,2.1185,2.1185,2.1184,0,2.0835,2.0891,2.0883,2.0921,2.0981,2.0969,2.103,2.1037,2.1053,2.1092,2.1069,2.1105,2.1095,2.1131,2.1127,2.1185,2.1194,2.1195,2.1193,2.1197,2.1197,2.121,2.1204,2.1188,2.1188,2.1187,2.1186,0,2.095,2.0947,2.1011,2.1025,2.103,2.1074,2.1086,2.1121,2.1122,2.117,2.1181,2.1183,2.1223,2.122,2.1266,2.1263,2.1335,2.1325,2.1328,2.1325,2.1374,2.1369,2.1533,2.1553,2.1409,2.1411,2.1412,0,2.1025,2.1066,2.1084,2.1108,2.112,2.1158,2.118,2.1169,2.1194,2.122,2.1252,2.129,2.132,2.1386,2.1391,2.1426,2.1417,2.1472,2.1422,2.1424,2.1417,2.1415,2.1419,2.1482,2.1484,2.1485,2.1486,0,2.1158,2.1153,2.1186,2.1218,2.1245,2.127,2.1292,2.1313,2.1304,2.1332,2.1373,2.1396,2.1442,2.148,2.1512,2.1522,2.1503,2.1501,2.1514,2.1519,2.1518,2.1518,2.1354,2.1498,2.1497,2.1496,2.1495,2.1495,2.1254,2.129,2.1307,2.1344,2.1359,2.138,2.1413,2.1417,2.145,2.1486,2.1478,2.1523,2.1542,2.1583,2.1597,2.1632,2.1612,2.1631,2.1636,2.1641,2.1646,2.1512,2.1638,2.1637,2.1637,2.1637,2.1637,0,2.1386,2.1395,2.1429,2.146,2.1489,2.1466,2.1489,2.1515,2.1555,2.1573,2.1603,2.1648,2.1684,2.1692,2.1726,2.1753,2.1744,2.1762,2.176,2.1763,2.1662,2.1647,2.1768,2.1768,2.1768,2.1768,2.1768,2.1768,2.1458,2.1515,2.1513,2.1577,2.1586,2.163,2.1645,2.1663,2.1678,2.173,2.1759,2.1763,2.1777,2.1812,2.1843,2.1844,2.1858,2.1879,2.1877,2.1783,2.177,2.1757,2.1743,2.1882,2.1883,2.1974,2.1975,2.1976]},{"header":{"parameterUnit":"m.s-1","parameterCategory":1,"la1":30.2991,"la2":30.254,"lo1":-89.0895,"lo2":-89.0444,"dy":0.0017,"dx":0.0017,"nx":28,"ny":28,"refTime":"2023-08-01T09:00:00:Z","depth":0,"parameterNumber":3,"parameterNumberName":"V-component_of_WINDS"},"data":[0,0,0,0,0,0,0,0,0,0,0,0,0,0,0,0,0,0,0,0,0,0,0,0,0,0,0,0,0,0,0,0,0,0,0,0,0,0,0,0,0,0,0,0,0,0,0,0,0,0,0,0,0,0,0,0,0,0,0.5879,0.5878,0,0.5815,0.5814,0.5813,0.5754,0.5754,0.5753,0.5752,0.5684,0.5683,0.5682,0,0,0,0,0,0,0,0,0,0,0,0,0,0.5948,0.5947,0.5879,0.5878,0.5877,0.5815,0.5814,0.5813,0.5754,0.5754,0.5753,0.5752,0.5685,0.5683,0.5682,0,0,0,0,0,0,0,0,0,0,0,0,0,0.5904,0.5946,0.5879,0.5841,0.5837,0.5815,0.5814,0.5813,0.5755,0.5754,0.5753,0.5752,0.5685,0.5684,0.5682,0.5693,0,0,0.5677,0.5676,0,0,0,0,0,0,0,0,0.5907,0.5902,0.5847,0.5843,0.5839,0.5791,0.5813,0.5772,0.5755,0.5786,0.5752,0.5751,0.5721,0.5716,0.5706,0.5689,0.5686,0.5676,0.5675,0.5675,0.5674,0,0,0,0,0,0,0,0.591,0.5904,0.5853,0.5846,0.5841,0.5826,0.5818,0.5805,0.576,0.5783,0.5779,0.5772,0.5718,0.5708,0.5704,0.5685,0.5677,0.5675,0.5674,0.5673,0.5672,0.5673,0,0,0,0,0,0,0.5919,0.5907,0.5855,0.5852,0.5871,0.5825,0.5817,0.5808,0.576,0.5752,0.5773,0.5769,0.5712,0.5706,0.5702,0.571,0.5675,0.5673,0.5672,0.5671,0.5672,0.5673,0,0,0,0,0,0,0.5921,0.5915,0.5858,0.5878,0.587,0.5825,0.5815,0.5807,0.5797,0.5752,0.5744,0.5771,0.5711,0.5704,0.5695,0.5707,0.5672,0.5671,0.567,0.5671,0.5673,0.5728,0,0,0,0,0,0,0.5923,0.5916,0.5921,0.5879,0.5869,0.5854,0.5816,0.5806,0.5794,0.5789,0.5748,0.574,0.5709,0.5698,0.5693,0.5704,0.5669,0.5668,0.567,0.5672,0.5725,0.5731,0.5736,0,0,0,0,0,0.5926,0.5939,0.5921,0.5915,0.5874,0.5855,0.5849,0.5813,0.5796,0.5799,0.577,0.5742,0.5706,0.5697,0.5692,0.5702,0.5668,0.567,0.5672,0.5722,0.573,0.5736,0,0,0,0,0,0,0.5983,0.5932,0.5913,0.5912,0.5888,0.5845,0.5848,0.5823,0.5803,0.5799,0.5754,0.5746,0.5741,0.572,0.5712,0.5709,0.5683,0.5684,0.5723,0.573,0.5736,0.5741,0.5668,0,0,0,0,0,0.5996,0.5985,0.5941,0.5945,0.5934,0.5894,0.5884,0.5858,0.5831,0.5821,0.5791,0.5765,0.5748,0.5737,0.5719,0.5721,0.5711,0.5725,0.5731,0.5736,0.5738,0.5736,0.5741,0.5681,0.5681,0.5681,0,0,0.6021,0.5993,0.5989,0.5956,0.5934,0.5923,0.5885,0.5876,0.5867,0.5819,0.5809,0.5786,0.5754,0.575,0.5747,0.5733,0.5752,0.5739,0.5743,0.5742,0.5738,0.5744,0.5749,0.5682,0.5682,0.5682,0,0,0.6063,0.6041,0.6041,0.602,0.5988,0.596,0.596,0.592,0.5903,0.5892,0.5856,0.5844,0.5815,0.5794,0.5779,0.5811,0.5783,0.5806,0.5836,0.5835,0.584,0.5844,0.5854,0.5859,0.5807,0.5808,0.5808,0,0.61,0.6083,0.6045,0.6037,0.6023,0.5979,0.5978,0.5959,0.5923,0.5913,0.5898,0.586,0.5836,0.5826,0.5833,0.5823,0.5821,0.5811,0.5842,0.5846,0.5849,0.5859,0.5863,0.581,0.581,0.581,0.581,0,0.6129,0.6117,0.6121,0.6087,0.6074,0.607,0.603,0.602,0.5995,0.5969,0.5957,0.5926,0.59,0.5895,0.5871,0.5881,0.5873,0.5851,0.5824,0.5858,0.5867,0.587,0.5815,0.5814,0.5813,0.5812,0,0,0.6206,0.615,0.6152,0.6135,0.6096,0.6086,0.6079,0.6054,0.6046,0.6021,0.6014,0.599,0.5968,0.5952,0.5924,0.5923,0.5949,0.59,0.5898,0.591,0.5957,0.5974,0.5979,0.593,0.5931,0.5931,0.5959,0,0.6241,0.6228,0.6192,0.6189,0.6177,0.6134,0.6128,0.6102,0.6077,0.6062,0.6034,0.6017,0.599,0.598,0.5977,0.5946,0.5958,0.5944,0.5922,0.5921,0.5932,0.5984,0.6002,0.6031,0.5962,0.5963,0.5963,0,0.6281,0.6259,0.6255,0.6215,0.6208,0.6204,0.6177,0.6164,0.6133,0.6115,0.6095,0.6065,0.6053,0.6028,0.6011,0.6003,0.5991,0.5975,0.5975,0.5972,0.5945,0.5982,0.6039,0.6044,0.5968,0.5968,0.5967,0,0.6337,0.6307,0.63,0.6287,0.624,0.6238,0.6218,0.6186,0.6173,0.6149,0.6139,0.6115,0.6101,0.6082,0.6044,0.603,0.6031,0.6003,0.6015,0.6016,0.6018,0.6018,0.6074,0.601,0.601,0.601,0.601,0,0.6381,0.638,0.6325,0.6321,0.6318,0.6276,0.6274,0.625,0.6221,0.6211,0.6171,0.6162,0.6113,0.6098,0.6068,0.6058,0.6052,0.6036,0.6028,0.604,0.6042,0.6032,0.6029,0.6011,0.6011,0.6011,0.601,0,0.6444,0.6407,0.6397,0.6353,0.6341,0.6341,0.6303,0.6296,0.6268,0.6255,0.6249,0.6205,0.6185,0.6145,0.6114,0.6093,0.609,0.6076,0.6101,0.6096,0.611,0.6109,0.6161,0.6166,0.61,0.61,0.6101,0,0.6474,0.6472,0.6428,0.6418,0.64,0.6385,0.6371,0.6329,0.6316,0.628,0.6277,0.6254,0.6233,0.6202,0.6166,0.6141,0.6126,0.6146,0.6122,0.6134,0.6126,0.6127,0.6126,0.6152,0.6153,0.6154,0.6154,0,0.6531,0.6513,0.6495,0.647,0.6455,0.6434,0.641,0.6404,0.6356,0.6343,0.6322,0.6306,0.6273,0.625,0.622,0.6197,0.6168,0.6162,0.6163,0.6175,0.619,0.6182,0.6116,0.6161,0.6161,0.616,0.616,0.6159,0.6578,0.6574,0.6542,0.6523,0.6501,0.6479,0.6471,0.6441,0.6423,0.6394,0.637,0.6351,0.6318,0.6274,0.6253,0.6236,0.6222,0.6224,0.6225,0.6226,0.6231,0.6192,0.6231,0.623,0.623,0.623,0.623,0,0.6633,0.661,0.6593,0.6561,0.6546,0.6519,0.6491,0.648,0.6464,0.6436,0.6416,0.6391,0.6368,0.6329,0.6303,0.6296,0.6282,0.6291,0.6291,0.6286,0.6245,0.6246,0.6303,0.6303,0.6303,0.6303,0.6303,0.6303,0.666,0.6651,0.6629,0.6609,0.6585,0.6567,0.6553,0.6532,0.6509,0.6484,0.6464,0.644,0.6407,0.6377,0.6354,0.6343,0.6335,0.6348,0.6333,0.6296,0.6289,0.6283,0.6284,0.6347,0.6347,0.6376,0.6376,0.6376]}]]